Location: Buckeye Ditch
(40.9104°N, 122.9517°W)
Time: 19:32:20
(UTC+00:00)

BlueWalker 3 - Pass Details

Date: 29 June 2024
Orbit: 480 x 491 km, 53.2° (Epoch: 24 July)

Event Time Altitude Azimuth Distance (km) Brightness Sun altitude
Rises 06:15:49 0° 314° (NW) 2,542 6.9 -20.1°
Reaches altitude 10° 06:18:30 10° 333° (NNW) 1,659 5.8 -20.4°
Maximum altitude 06:21:09 18° 19° (NNE) 1,235 4.4 -20.6°
Drops below altitude 10° 06:23:48 10° 64° (ENE) 1,655 4.5 -20.9°
Enters shadow 06:24:05 - 67° (ENE) 1,733 4.6 -20.9°
